User: anonymous   Login
Location: Writing-on-Stone Provincial Park
(49.0825°N, 111.6163°W)
Time: 18:45:40
(UTC-07:00)
Language:

BREEZE-M DEB (TANK) - Orbit

View from above orbital plane
View from above orbital plane
View from above satellite
View from above satellite

Ground track
Ground track

The orbit data is extracted from the following two-line orbital elements,

1 29649U 06056B   15031.41057484  .00002537  00000-0  67849-3 0   995
2 29649 049.4620 145.6994 5391275 341.9817 013.0397 04.95880744144539
Epoch (UTC): 31 January 2015 09:51:13
Eccentricity: 0.5391275
inclination: 49.4620°
perigee height: 316 km
apogee height: 15979 km
right ascension of ascending node: 145.6994°
argument of perigee: 341.9817°
revolutions per day: 4.95880744
mean anomaly at epoch: 13.0397°
orbit number at epoch: 14453

The dashed part of the orbit path shows where the satellite is in the earth's shadow,  

DLR